sat.trackr.live / text

‹ back to catalog

STARLINK-35297

NORAD 66010 · 2025-232F

PAYLOAD ACTIVE UNKNOWN

§ Identity

Operator
Country
US
Launch date
2025-10-16
Launch site
AFETR
Launch vehicle
Mass (kg)
RCS (m²)

Purposes: comms

External: N2YO · Heavens-Above · Gunter

§ Orbital elements

Epoch: 2026-05-25T05:17:38.932800Z

Period
93.85 min
Inclination
53.1607°
Eccentricity
0.0001207
Mean motion
15.34396651 rev/d
Perigee alt
461.9 km
Apogee alt
463.5 km
Semi-major
6,840.9 km
B*
6.7865e-4
RAAN
108.3715°
Arg perigee
87.9932°
Mean anomaly
272.1209°
Rev number
3,514

§ Raw data

STARLINK-352971 66010U 25232F   26145.22058950  .00022620  00000+0  67865-3 0  99922 66010  53.1607 108.3715 0001207  87.9932 272.1209 15.34396651 35149

JSON: /api/v1/satellites/66010 · /tle

For live sub-satellite position, see the globe view (requires WebGL).

§ Visibility from observer

Set your observer location to see the next 7 days of passes ≥ 10°. The values pass through the URL so the page stays shareable.

No JS? Fill the form by hand. The geolocation button needs JavaScript.